"Pseudo-MPEC" for N00h8yz

Created 2020 Oct 21 22:07:19 UT using Find_Orb

Click here for an explanation of pseudo-MPECs

 
 Astrometry: 
     N00h8yz  S2020 10 13nbbOwlg6t1D?eC$IS!im!xCwUwTuaXC#urA`6Astrometry;K4[gC51
     N00h8yz  s2020 10 13yXF#1GFY#y.yT):gL=byq)9ayduZ+O8+,#SR\VQ80_kdB+QomHsQC51
     N00h8yz  S2020 10 13aZP%0009EYIwpYO.ihTS19_ZR(i)CJY4C2My(rY+oOx]-A7;RQfGC51
     N00h8yz  s2020 10 13,n6jk:#mN!Y!sY!C.@AFMb]BnhvZi)(Ms@P@o+J,pDeqgt7b@?%WC51
     N00h8yz  S2020 10 14as^TiA\In0DxPm**=6;Ur\)cE#($5jwiN+XoB\=Ro\sSgjiA,ymhC51
     N00h8yz  s2020 10 14(Wg`_kuOCdWNvJXw8m9eFZVj!CI^K1?K`oHJQGa!Y^$rQq7RQGv,C51
     N00h8yz  S2020 10 14=?UD[\VU-JVA*-hkb!P@s[7egB2cOP(*,'@h]uOSy_N]FO/YOknAC51
     N00h8yz  s2020 10 1406cCS8M\wY=q!F*-yj6\jReSJx)pG$]g#6PLWciNCNI+MmAc7MOkC51
     N00h8yz  S2020 10 14R'NNR(e?`Vyj\V.^LI2O.9v)#4W,%cg-e_G[X-kXxNh`T'2Wmf-8C51
     N00h8yz  s2020 10 14odLJ+i78T-Qi0cZB;bd!k4t9P:BcojhT3%Gh3xDVbaj*#SI$InlwC51
     N00h8yz  C2020 10 14-vka?U%hymB2siT`BRp*:`i=m8Aq,4Hn0:U)o[qHN:Z!]i;%Ae05F52
     N00h8yz  C2020 10 14SRskNDQmy-U0V6'$u8tY'i8#Ul[Uy.MS,C+#-`3cPoAIDYwW;fprF52
     N00h8yz  S2020 10 14ALdV(ce\jrhgrNk%4XB?M=hLve)k+yc'(].kHD6tg#l;HK)'mH.0C51
     N00h8yz  s2020 10 14jZa/d,;=pBCR%+w(*3VqkI2mtotB],b=Gr[T3y$/vVh(SJfg']2PC51
     N00h8yz  S2020 10 14I%$TF67SyTTq6.^i2meh[GB,3c3JO=MTAl.B\yu[T),D8jgJ]RmsC51
     N00h8yz  s2020 10 14T5%ARlF'cs5*exLHw!]Q+jOCZGrI:k#)Jx5pDY,=]*j_'EC3*g'GC51
     N00h8yz  S2020 10 14YOs(C_'h78\3qT?57IYQ*Xtqca4jbms6OqThxC%n[;'-IFv;I/l.C51
     N00h8yz  s2020 10 14g@%*[9uC`H35?hWqredacted;e7fRm-n]q=lcK4)+dDma+ut5cR-C51
     N00h8yz  S2020 10 14NiMNu@6QhsH`@11TnprX;ft\ItK22:I_BEZ2PH`SbdN43D,E_L?9C51
     N00h8yz  s2020 10 14bh4hTnH:E=tWGvq_w?31RWrwqxq0;9x)Hm)peCo\qM)Hx*clickaC51
     N00h8yz  S2020 10 15vINa!_3RV2#A'=?0?f95+7_gb2qddUK`$yY_ieoUij\`dlYP`H\wC51
     N00h8yz  s2020 10 15-#9sN$^))x-)@BD,kyO\\iFNHP4pfe$DYwr][f4cI4*EXj72sMnbC51
     N00h8yz  S2020 10 15Mv0WeZDP8hc6:FKg_6Nd\`TMrMT@i'=S^(3\2L$v?vA5herec';/C51
     N00h8yz  s2020 10 15Y6og=Bnqb]R%6ja$Mt*+JFJFA`0Ud15T[Vq#Kh?.tyyd`#k4-w^-C51
     N00h8yz  S2020 10 15!_N;oQq3`gw^TANPMOg,0m-:T.y($H3u[*5'+:6M@dWtk`9XFI49C51
     N00h8yz  s2020 10 150Omr(OvQ=KfG:i()rM$\^R'Dk`jnt]X#*Q,Y'7PS#wmFZm*Rtb5XC51
     N00h8yz  S2020 10 15:V`V.Q]g.g:!EQQR/)/cG9;BU*Tp!eV1e#+KDIeEIqQUZZUiw#]8C51
     N00h8yz  s2020 10 15y8w-bRrrc87;B+_Fp_IA6$!pZEm7(_j@6w)hp!,b8fW5qp[AU*ckC51
     N00h8yz  S2020 10 15.;Bcb3kH#f8!o'KJ33=yDRJ:3kpqT;%s16s5(umn4n=;sA(`^[*jC51
     N00h8yz  s2020 10 15+xWvnN+d.Xu0nnyPjlx$:osg7UMO61tu0QKX0B4hqx7fQA0x@hliC51
     N00h8yz  S2020 10 15;ZZpa0`s^5)5`aoq^]9U5Pugr_?8M1[BE8-LRdgcyN$Iyb,8rBimC51
     N00h8yz  s2020 10 15caS(SZ94#9PoFVHt5Ct=GCd)U\KDO4_\pl=dZt#eiIA7)p'LDDsgC51
     N00h8yz  S2020 10 15a]J?v`Idy_[kEKPH6@K21.(8ZL]-mxE=:mTA2S'mD)lI4n`TsL?'C51
     N00h8yz  s2020 10 15TX;ZoMmGDa@8;a$HhqFL=o`1/n^[3eikZI:\P-^uH$gcek1TWY'@C51
     N00h8yz  S2020 10 15D64(rGG;m[e-=;oUj=YW[EFSr$3+_SOuA1Gh2c5mNCeClt4cTEDSC51
     N00h8yz  s2020 10 15k,tIsZ.c)Gu+ian%/vNsHHa1aV/=!o7JhKXn5;odF9KnZDt.B1Y-C51
     N00h8yz  S2020 10 153@cC]d8Oh[F)5yyb8%109U^MZ3ag'+w?ojH^KH^T8-k=yJNcd]!fC51
     N00h8yz  s2020 10 15e[SLISSTQL#At;FwT5TbZq;+yYI7ZiBN?O[s.P!\lGYFVHT]L3h%C51
     N00h8yz  S2020 10 16lkMZiF.Q([2jegW5`Wkb2cE8Pforg=CXZJ8xmnEU'62K!yQ3h7D3C51
     N00h8yz  s2020 10 16VPyn'gf$EFN8xA,wP`$frOAL'.nrS\L/2LXm9DK8jyPBt7@JQDj$C51
     N00h8yz  C2020 10 19NfP/tx'MZT]GZonM9@e]?p%nayr8DcL)F[#EbQYph*]OWPowghmFF52
     N00h8yz  C2020 10 19\.F/FDL=pUcQXbm/BQHhQrF#_5J`KX,4XP`u;_+tGx]CpiF?WQyPF52
     N00h8yz  C2020 10 19RViAZOFl[[JeAFe]_p1`In*?]*8explanationo[kEgG4.[UMy6xF52
     N00h8yz  C2020 10 19?Wx^n]/%C2N'Qe1DZG5Y47HwrfR?Bx8SPQH3`'0r/8#OI!cJ7C_(T14
     N00h8yz  C2020 10 19E\TehT^0,wc\NeIhGZ`0r=_u?IF0F_8EAl0c!nsaE6DMVG;W'UgST14
     N00h8yz  C2020 10 19s')l*)*hnOc:9L;ay#-i!4EPV^+D7X%tJ/#9ktBT5[Z*BY-)IbH?T14

Station data:
(C51) WISE. Measurers A. Mainzer, E. Wright, J. Bauer, T. Grav, J. Dailey, J.
   Masiero, R. Cutri, R. McMillan, R. Walker.
(F52) Pan-STARRS 2, Haleakala  (N20.707384 W156.255910)  US/Hawaii. 1.8-m
   Ritchey-Chrétien + CCD.
(T14) Mauna Kea-UH/Tholen NEO Follow-Up (CFHT)  (N19.825252 W155.468876)
   US/Hawaii. 3.6-m Canada-France-Hawaii Telescope.

Orbital elements:  N00h8yz
   Perihelion 2020 Sep 16.720262 +/- 1.62 TT = 17:17:10 (JD 2459109.220262)
Epoch 2020 Oct 19.0 TT = JDT 2459141.5   Earth MOID: 0.3265   Ju: 0.5305
M   5.81400865 +/- 1.4              (J2000 ecliptic)          AutoNEOCP
n   0.18011325 +/- 0.0408           Peri.  357.74868 +/- 1.3
a   3.10531455 +/- 0.469            Node    44.18498 +/- 1.1
e   0.5756599 +/- 0.0579            Incl.   26.11723 +/- 0.6
P   5.47                   H 19.4   G  0.15   U 10.6  
q 1.31770934 +/- 0.0232    Q 4.89291977 +/- 1.09
From 27 observations 2020 Oct. 13-19; mean residual 0".80
Residuals in arcseconds: 
201013 C51  .73+  1.1+    201014 C51  .14+  .18+    201015 C51  .95+  .02+    
201013 C51  .86+  .17-    201014 C51  .50-  .09-    201015 C51  .21-  1.1+    
201014 C51  1.3+  .50+    201015 C51  .70+  .76+    201016 C51  .16+  .45+    
201014 C51  4.6-  .99-    201015 C51  .75+  .05+    201019 F52  .11+  .05+    
201014 C51  .20+  .36+    201015 C51  .22+  .20-    201019 F52  .11-  .10+    
201014 F52  .16+  .16-    201015 C51  .23+  .34-    201019 F52  .32+  .08+    
201014 F52  .15-  .03-    201015 C51  .20+  .28+    201019 T14  .00   .00     
201014 C51  .36+  .48+    201015 C51  .39-  .34-    201019 T14  .01-  .00     
201014 C51  .10+  .41-    201015 C51  1.4-  .81-    201019 T14  .01-  .01-    

Ephemerides (geocentric):
Date (UTC) HH   RA              Dec         delta   r     elong  mag " sig PA
---- -- -- --  -------------   -----------  ------ ------ -----  --- ---- ---
2020 10 21 22  08 02 36.684   +38 00 48.16  .88949 1.3764  93.6 21.6 .814 177
2020 10 21 23  08 02 44.908   +38 01 51.77  .88943 1.3765  93.7 21.6 .842 176
2020 10 22 00  08 02 53.131   +38 02 55.37  .88937 1.3766  93.7 21.6 .870 176
2020 10 22 01  08 03 01.352   +38 03 58.96  .88931 1.3768  93.7 21.6 .898 176
2020 10 22 02  08 03 09.573   +38 05 02.53  .88925 1.3769  93.7 21.6 .927 175
2020 10 22 03  08 03 17.792   +38 06 06.09  .88919 1.3770  93.7 21.6 .956 175
2020 10 22 04  08 03 26.011   +38 07 09.64  .88913 1.3772  93.7 21.6 .986 175
2020 10 22 05  08 03 34.228   +38 08 13.17  .88907 1.3773  93.8 21.6 1.02 174
2020 10 22 06  08 03 42.444   +38 09 16.69  .88901 1.3774  93.8 21.6 1.05 174
2020 10 22 07  08 03 50.658   +38 10 20.20  .88895 1.3776  93.8 21.6 1.08 174
2020 10 22 08  08 03 58.872   +38 11 23.70  .88889 1.3777  93.8 21.6 1.11 173
2020 10 22 09  08 04 07.084   +38 12 27.18  .88883 1.3779  93.8 21.6 1.14 173
2020 10 22 10  08 04 15.296   +38 13 30.65  .88877 1.3780  93.8 21.6 1.17 173
2020 10 22 11  08 04 23.506   +38 14 34.11  .88871 1.3781  93.9 21.6 1.20 173
2020 10 22 12  08 04 31.715   +38 15 37.55  .88865 1.3783  93.9 21.5 1.24 173
2020 10 22 13  08 04 39.922   +38 16 40.99  .88860 1.3784  93.9 21.5 1.27 172
2020 10 22 14  08 04 48.129   +38 17 44.40  .88854 1.3785  93.9 21.5 1.30 172
2020 10 22 15  08 04 56.334   +38 18 47.81  .88848 1.3787  93.9 21.5 1.34 172
2020 10 22 16  08 05 04.538   +38 19 51.20  .88842 1.3788  93.9 21.5 1.37 172
2020 10 22 17  08 05 12.741   +38 20 54.58  .88836 1.3789  94.0 21.5 1.40 172
2020 10 22 18  08 05 20.943   +38 21 57.95  .88830 1.3791  94.0 21.5 1.44 172
2020 10 22 19  08 05 29.143   +38 23 01.30  .88825 1.3792  94.0 21.5 1.47 171
2020 10 22 20  08 05 37.343   +38 24 04.64  .88819 1.3794  94.0 21.5 1.51 171
2020 10 22 21  08 05 45.541   +38 25 07.97  .88813 1.3795  94.0 21.5 1.55 171
2020 10 22 22  08 05 53.737   +38 26 11.29  .88807 1.3796  94.0 21.5 1.58 171
2020 10 22 23  08 06 01.933   +38 27 14.59  .88802 1.3798  94.1 21.5 1.62 171
2020 10 23 00  08 06 10.127   +38 28 17.88  .88796 1.3799  94.1 21.5 1.66 171
2020 10 23 01  08 06 18.321   +38 29 21.15  .88790 1.3800  94.1 21.5 1.69 171
2020 10 23 02  08 06 26.512   +38 30 24.42  .88785 1.3802  94.1 21.5 1.73 171
2020 10 23 03  08 06 34.703   +38 31 27.67  .88779 1.3803  94.1 21.5 1.77 171
2020 10 23 04  08 06 42.893   +38 32 30.90  .88773 1.3805  94.1 21.5 1.81 171
2020 10 23 05  08 06 51.081   +38 33 34.13  .88768 1.3806  94.2 21.5 1.85 171
2020 10 23 06  08 06 59.268   +38 34 37.34  .88762 1.3807  94.2 21.5 1.89 170
2020 10 23 07  08 07 07.453   +38 35 40.54  .88756 1.3809  94.2 21.5 1.93 170
2020 10 23 08  08 07 15.638   +38 36 43.72  .88751 1.3810  94.2 21.5 1.97 170
2020 10 23 09  08 07 23.821   +38 37 46.90  .88745 1.3812  94.2 21.5 2.01 170
2020 10 23 10  08 07 32.003   +38 38 50.05  .88740 1.3813  94.2 21.5 2.05 170
2020 10 23 11  08 07 40.183   +38 39 53.20  .88734 1.3814  94.3 21.5 2.09 170
2020 10 23 12  08 07 48.362   +38 40 56.33  .88728 1.3816  94.3 21.5 2.13 170
2020 10 23 13  08 07 56.541   +38 41 59.45  .88723 1.3817  94.3 21.5 2.17 170
2020 10 23 14  08 08 04.717   +38 43 02.56  .88717 1.3818  94.3 21.5 2.22 170
2020 10 23 15  08 08 12.893   +38 44 05.66  .88712 1.3820  94.3 21.5 2.26 170
2020 10 23 16  08 08 21.067   +38 45 08.74  .88706 1.3821  94.4 21.5 2.30 170
2020 10 23 17  08 08 29.240   +38 46 11.81  .88701 1.3823  94.4 21.5 2.35 170
2020 10 23 18  08 08 37.411   +38 47 14.86  .88695 1.3824  94.4 21.5 2.39 170
2020 10 23 19  08 08 45.582   +38 48 17.91  .88690 1.3825  94.4 21.5 2.43 170
2020 10 23 20  08 08 53.750   +38 49 20.93  .88684 1.3827  94.4 21.5 2.48 170
2020 10 23 21  08 09 01.918   +38 50 23.95  .88679 1.3828  94.4 21.5 2.52 170